Location: Montr�al
(45.5000°N, 73.5830°W)
Time: 06:21:18
(UTC-04:00)

ISS - Visible Passes

Search period start: 23 September 2014 00:00
Search period end: 03 October 2014 00:00
Orbit: 413 x 416 km, 51.6° (Epoch: 23 September)

Date Brightness Start Highest point End Pass type
(mag) Time Alt. Az. Time Alt. Az. Time Alt. Az.
23 Sep -0.8 04:07:28 22° NNE 04:07:28 22° NNE 04:09:04 10° NE visible
23 Sep -1.7 05:40:20 10° NW 05:43:20 30° N 05:46:20 10° ENE visible
24 Sep -1.6 04:53:25 24° NNW 04:54:15 28° N 04:57:11 10° ENE visible
25 Sep -0.7 04:06:30 20° NE 04:06:30 20° NE 04:08:03 10° ENE visible
25 Sep -2.2 05:39:23 11° NW 05:42:22 43° NNE 05:45:34 10° E visible
26 Sep -1.9 04:52:31 30° NNW 04:53:17 34° NNE 04:56:22 10° E visible
27 Sep -0.6 04:05:42 20° NE 04:05:42 20° NE 04:07:06 10° ENE visible
27 Sep -3.2 05:38:35 16° WNW 05:41:10 80° NNE 05:44:30 10° ESE visible
28 Sep -2.8 04:51:51 53° N 04:52:05 54° NNE 04:55:22 10° ESE visible
29 Sep -0.3 04:05:14 16° E 04:05:14 16° E 04:06:07 10° E visible
29 Sep -2.9 05:38:07 25° W 05:39:41 44° SW 05:42:52 10° SE visible
30 Sep -2.4 04:51:38 42° SE 04:51:38 42° SE 04:53:58 10° SE visible
01 Oct -1.6 05:38:12 19° SW 05:38:12 19° SW 05:40:19 10° S visible
